Location: Aranbee
(34.0885°N, 118.2342°W)
Time: 07:08:35
(UTC+00:00)

Explorer 7 - Pass Details

Date: 31 July 2021
Orbit: 484 x 676 km, 50.3° (Epoch: 23 September)

Event Time Altitude Azimuth Distance (km) Brightness Sun altitude
Exits shadow 11:32:11 21° 173° (S) 1,126 8.1 -17.3°
Maximum altitude 11:33:46 29° 131° (SE) 909 8.0 -17.0°
Drops below altitude 10° 11:37:06 10° 70° (ENE) 1,691 10.5 -16.5°
Sets 11:39:30 0° 59° (ENE) 2,600 12.1 -16.1°
